Simultaneous Nadir Overpasses (SNOs) Predictions

Prediction of SNOs between GOES-15 and METOP-C Satellite Orbit:

Table of predicted SNOs for the next 14.0 days since TLE Epoch: 3/25/2023
Index Date Time (GOES-15) GOES-15 Lat,Lon METOP-C Lat,Lon Distance(km) Time Diff (sec)
1 03/25/2023 17:57:17 -0.10,-128.01 -0.44,-126.42 180.77 80
2 03/27/2023 06:13:39 0.12,-128.03 -0.56,-131.02 341.45 80
3 03/28/2023 05:55:40 0.11,-128.06 0.56,-126.03 230.73 80
4 03/29/2023 18:11:54 -0.13,-128.14 0.44,-130.61 282.39 80
5 03/30/2023 17:53:56 -0.12,-128.16 -0.68,-125.62 289.51 80
6 04/01/2023 06:10:16 0.14,-128.18 -0.35,-130.22 233.26 80
7 04/02/2023 05:52:18 0.13,-128.21 0.78,-125.23 338.77 80
8 04/03/2023 18:08:32 -0.14,-128.28 0.19,-129.81 174.43 80
9 04/04/2023 17:50:33 -0.13,-128.30 -0.88,-124.81 397.37 80
10 04/06/2023 06:06:53 0.14,-128.31 -0.12,-129.41 125.81 80
11 04/07/2023 05:48:54 0.14,-128.33 1.03,-124.43 445.76 80
